Home > Time Zones > World Clock > Weather > France > Caen > Past weeks

Flag for France Weather past 2 weeks in Caen, France

Now
57 °F

Overcast.


Feels Like: 55 °F
Forecast: 52 / 62 °F
Wind: 12 mph from Southwest

Location: Caen Airport

Current Time: Oct 23, 2014 at 5:14:04 PM

Latest Report: Oct 23, 2014 at 4:30 PM


Visibility: N/A

Pressure: 30.18 "Hg

Humidity: 77%

Dew point: 50 °F

Location of CaenLocation

Historic Weather in Caen — Graph

°F

Caen temperature yesterday

Maximum temperature yesterday: 59 °F (at 3:00 PM)
Minimum temperature yesterday: 46 °F (at 5:00 AM)
Average temperature yesterday: 53 °F

Past Weeks' High & Low Weather Summary

 TemperatureHumidityPressure
High75 °F (Oct 18, 2:30 PM)100% (Oct 11, 4:00 AM)30.39 "Hg (Oct 11, 4:00 AM)
Low45 °F (Oct 15, 2:00 AM)52% (Oct 9, 2:30 PM)29.36 "Hg (Oct 13, 2:00 AM)
Average57 °F83%29.87 "Hg
* Reported Oct 8 4:00 PM — Oct 23 4:00 PM, Caen, Weather by CustomWeather, © 2014

Note: Actual official high and low records may vary slightly from our data, if they occured in-between our weather recording intervals... More about our weather records

Advertising

Caen weather history for previous 24 hours

 ConditionsComfort  
Time TempWeatherWind HumidityBarometerVisibility
4:00 PM
Oct 23
57 °FMostly cloudy.12 mph72%30.18 "HgN/A
3:30 PM57 °FOvercast.12 mph77%30.21 "HgN/A
3:00 PM57 °FMostly cloudy.14 mph72%30.21 "HgN/A
2:30 PM57 °FOvercast.8 mph72%30.21 "HgN/A
2:00 PM55 °FOvercast.10 mph77%30.21 "HgN/A
1:30 PM55 °FOvercast.9 mph77%30.24 "HgN/A
1:00 PM55 °FOvercast.8 mph72%30.24 "HgN/A
12:30 PM55 °FOvercast.8 mph72%30.24 "HgN/A
12:00 PM54 °FOvercast.9 mph77%30.24 "HgN/A
11:30 AM54 °FOvercast.9 mph77%30.27 "HgN/A
11:00 AM54 °FOvercast.9 mph72%30.27 "HgN/A
10:30 AM54 °FOvercast.8 mph72%30.27 "HgN/A
10:00 AM52 °FOvercast.9 mph77%30.27 "HgN/A
9:30 AM52 °FOvercast.9 mph77%30.27 "HgN/A
9:00 AM52 °FOvercast.10 mph77%30.27 "HgN/A
8:30 AM52 °FOvercast.10 mph77%30.27 "HgN/A
8:00 AM52 °FOvercast.12 mph77%30.27 "HgN/A
7:30 AM52 °FOvercast.9 mph77%30.27 "HgN/A
7:00 AM52 °FOvercast.10 mph77%30.27 "HgN/A
6:30 AM52 °FOvercast.10 mph82%30.27 "HgN/A
6:00 AM52 °FOvercast.7 mph82%30.27 "HgN/A
5:30 AM52 °FOvercast.8 mph82%30.27 "HgN/A
5:00 AM52 °FOvercast.8 mph82%30.27 "HgN/A
4:30 AM52 °FOvercast.7 mph82%30.27 "HgN/A
4:00 AM52 °FOvercast.7 mph82%30.27 "HgN/A
3:30 AM52 °FOvercast.6 mph82%30.30 "HgN/A
3:00 AM52 °FOvercast.7 mph82%30.30 "HgN/A
2:30 AM52 °FOvercast.6 mph82%30.30 "HgN/A
2:00 AM52 °FOvercast.6 mph82%30.30 "HgN/A
1:30 AM54 °FOvercast.7 mph77%30.30 "HgN/A
1:00 AM54 °FOvercast.7 mph77%30.30 "HgN/A
12:30 AM54 °FOvercast.9 mph77%30.30 "HgN/A
12:00 AM54 °FOvercast.8 mph77%30.33 "HgN/A
11:30 PM
Oct 22
54 °FOvercast.8 mph77%30.33 "HgN/A
11:00 PM54 °FOvercast.8 mph77%30.33 "HgN/A
10:30 PM54 °FOvercast.8 mph77%30.33 "HgN/A
10:00 PM54 °FOvercast.8 mph77%30.33 "HgN/A
9:30 PM54 °FMostly cloudy.7 mph77%30.33 "HgN/A
9:00 PM54 °FMostly cloudy.8 mph77%30.33 "HgN/A
8:30 PM54 °FOvercast.7 mph77%30.33 "HgN/A
8:00 PM54 °FPassing clouds.9 mph77%30.33 "HgN/A
7:30 PM55 °FOvercast.8 mph72%30.33 "HgN/A
7:00 PM55 °FMostly cloudy.9 mph72%30.33 "HgN/A
6:30 PM55 °FBroken clouds.10 mph72%30.33 "HgN/A
6:00 PM57 °FMostly cloudy.10 mph67%30.33 "HgN/A
5:30 PM57 °FPartly sunny.12 mph67%30.33 "HgN/A
5:00 PM57 °FMostly cloudy.13 mph63%30.33 "HgN/A
Weather by CustomWeather, © 2014

See weather overviewHow to use our weather pages